Weather Roundup
Issued by NWS Chicago, IL

Home | Current Version | Previous Version | Graphics & Text | Print | Product List | Glossary On
Versions: 1 2 3 4 5 6 7 8 9 10 11 12 13 14 15 16 17 18 19 20 21 22 23 24 25 26 27 28 29 30 31 32 33 34 35 36 37 38 39 40 41 42 43 44 45 46 47 48 49 50
000
NZUS59 KLOT 011002
HRRLOT

CHICAGO AREA WEATHER ROUNDUP
NATIONAL WEATHER SERVICE CHICAGO/ROMEOVILLE IL
500 AM CDT TUE SEP 01 2015

NOTE: "FAIR" INDICATES FEW OR NO CLOUDS BELOW 12,000 FEET WITH NO
SIGNIFICANT WEATHER AND/OR OBSTRUCTIONS TO VISIBILITY.

* THESE STATIONS ARE NOT UNDER NWS QUALITY CONTROL. THEY ALSO MAY NOT
  REPORT WEATHER SUCH AS PRECIPITATION OR FOG.

ILZ005-006-012>014-019>023-011100-
NORTHEAST ILLINOIS

CITY           SKY/WX    TMP DP  RH WIND       PRES   REMARKS
OHARE          CLEAR     70  68  93 CALM      30.03S
MIDWAY         PTCLDY    75  69  81 S6        30.03F
AURORA         PTCLDY    68  66  93 E3        30.04S FOG
WAUKEGAN       CLEAR     69  67  93 SW5       30.02S FOG
DUPAGE AIRPORT CLEAR     68  66  93 S3        30.03S FOG
WHEELING       CLEAR     68  66  93 CALM      30.04S FOG
NORTHERLY IS     N/A     74  68  81 S6          N/A
$$

WIZ051-052-058>065-066-070>072-011100-
SOUTHEAST WISCONSIN

CITY           SKY/WX    TMP DP  RH WIND       PRES   REMARKS
MILWAUKEE      CLEAR     69  66  90 S3        30.02S FOG
KENOSHA*       CLEAR     68  66  93 SW6       30.03S
RACINE*        CLEAR     70  66  87 S6        30.04S FOG
$$

INZ001>003-010>013-019-020-011100-
NORTHWEST INDIANA

CITY           SKY/WX    TMP DP  RH WIND       PRES   REMARKS
GARY*          PTCLDY    72  68  88 CALM      30.05F
MICHIGAN CITY* NOT AVBL
RENSSELAER*    NOT AVBL
$$

LMZ740>746-011100-
SOUTHERN LAKE MICHIGAN

STATION/POSITION TIME  SKY/WX   TEMP WIND        PRES    VSBY
                                AIR  DIR/SP/G
                 (UTC)          (F)  (DEG/KT/KT) (MB)    (MI)
HARRISON CRIB    0900            74  180/ 11/ 13   N/A
BURNHAM HARBOR   1000            74  210/  4/  6   N/A
CALUMET HARBOR   0900            73  190/  4/  5   N/A
BURNS HARBOR     0900            73  190/  8/ 11 1017.9S
MICHIGAN CITY    0900            75  160/ 11/ 13   N/A
$$

ABBREVIATIONS USED IN REMARKS
   TC - TEMPERATURE IN CELSIUS
  WCI - WIND CHILL INDEX
   HX - HEAT INDEX
  VSB - VISIBILITY
$$


USA.gov is the U.S. government's official web portal to all federal, state and local government web resources and services.